Tiempo cada hora Madrid

Hoy, 15 Mayo, Sábado

Tiempo Temperatura Precipitaciones Viento Presión Humedad
00:00 +15°C° 0 mm 2 mps 706 mmHg 47%
01:00 +15°C° 0 mm 1 mps 706 mmHg 51%
02:00 +14°C° 0 mm 1 mps 705 mmHg 54%
03:00 +13°C° 0 mm 1 mps 705 mmHg 58%
04:00 +14°C° 0 mm 1 mps 705 mmHg 58%
05:00 +14°C° 0 mm 1 mps 706 mmHg 59%
06:00 +14°C° 0 mm 1 mps 706 mmHg 59%
07:00 +16°C° 0 mm 2 mps 706 mmHg 53%
08:00 +18°C° 0 mm 3 mps 706 mmHg 48%
09:00 +20°C° 0 mm 3 mps 706 mmHg 42%
10:00 +21°C° 0 mm 4 mps 706 mmHg 39%
11:00 +23°C° 0 mm 4 mps 706 mmHg 36%
12:00 +25°C° 0 mm 5 mps 706 mmHg 33%
13:00 +26°C° 0 mm 5 mps 706 mmHg 33%
14:00 +27°C° 0 mm 5 mps 706 mmHg 33%
15:00 +27°C° 0 mm 5 mps 706 mmHg 33%
16:00 +27°C° 0 mm 5 mps 706 mmHg 36%
17:00 +26°C° 0 mm 5 mps 705 mmHg 40%
18:00 +25°C° 0 mm 5 mps 705 mmHg 44%
19:00 +23°C° 0 mm 4 mps 705 mmHg 50%
20:00 +21°C° 0 mm 3 mps 706 mmHg 56%
21:00 +19°C° 0 mm 3 mps 706 mmHg 62%
22:00 +19°C° 0 mm 2 mps 706 mmHg 65%
23:00 +18°C° 0 mm 2 mps 706 mmHg 67%

Mañana, 16 Mayo, Domingo

Tiempo Temperatura Precipitaciones Viento Presión Humedad
00:00 +17°C° 0 mm 2 mps 705 mmHg 70%
01:00 +17°C° 0 mm 2 mps 705 mmHg 72%
02:00 +16°C° 0 mm 2 mps 705 mmHg 73%
03:00 +16°C° 0 mm 2 mps 705 mmHg 75%
04:00 +16°C° 0 mm 2 mps 705 mmHg 75%
05:00 +16°C° 0 mm 2 mps 705 mmHg 75%
06:00 +16°C° 0 mm 2 mps 705 mmHg 75%
07:00 +18°C° 0 mm 2 mps 705 mmHg 67%
08:00 +20°C° 0 mm 3 mps 706 mmHg 58%
09:00 +22°C° 0 mm 3 mps 706 mmHg 50%
10:00 +23°C° 0 mm 4 mps 706 mmHg 46%
11:00 +25°C° 0 mm 4 mps 706 mmHg 42%
12:00 +27°C° 0 mm 4 mps 706 mmHg 38%
13:00 +27°C° 0 mm 5 mps 705 mmHg 38%
14:00 +27°C° 0 mm 5 mps 705 mmHg 37%
15:00 +28°C° 0 mm 5 mps 705 mmHg 36%
16:00 +27°C° 0 mm 5 mps 705 mmHg 39%
17:00 +26°C° 0 mm 5 mps 705 mmHg 42%
18:00 +25°C° 0 mm 5 mps 705 mmHg 44%
19:00 +23°C° 0 mm 4 mps 705 mmHg 48%
20:00 +22°C° 0 mm 4 mps 705 mmHg 51%
21:00 +20°C° 0 mm 3 mps 706 mmHg 55%
22:00 +19°C° 0 mm 3 mps 706 mmHg 58%
23:00 +18°C° 0 mm 2 mps 706 mmHg 61%

Pasado mañana, 17 Mayo, Lunes

Tiempo Temperatura Precipitaciones Viento Presión Humedad
00:00 +17°C° 0 mm 2 mps 705 mmHg 63%
01:00 +17°C° 0 mm 2 mps 705 mmHg 65%
02:00 +16°C° 0 mm 2 mps 705 mmHg 67%
03:00 +16°C° 0 mm 2 mps 705 mmHg 68%
04:00 +15°C° 0 mm 2 mps 706 mmHg 68%
05:00 +15°C° 0 mm 2 mps 706 mmHg 68%
06:00 +15°C° 0 mm 2 mps 706 mmHg 68%
07:00 +17°C° 0 mm 2 mps 707 mmHg 61%
08:00 +20°C° 0 mm 1 mps 707 mmHg 55%
09:00 +21°C° 0 mm 1 mps 707 mmHg 49%
10:00 +23°C° 0 mm 2 mps 707 mmHg 45%
11:00 +24°C° 0 mm 3 mps 707 mmHg 41%
12:00 +26°C° 0 mm 3 mps 707 mmHg 38%
13:00 +26°C° 0 mm 4 mps 707 mmHg 37%
14:00 +26°C° 0 mm 4 mps 707 mmHg 36%
15:00 +27°C° 0 mm 5 mps 707 mmHg 35%
16:00 +26°C° 0 mm 5 mps 707 mmHg 36%
17:00 +26°C° 0 mm 5 mps 707 mmHg 37%
18:00 +25°C° 0 mm 5 mps 707 mmHg 37%
19:00 +23°C° 0 mm 4 mps 707 mmHg 40%
20:00 +22°C° 0 mm 4 mps 707 mmHg 43%
21:00 +20°C° 0 mm 3 mps 707 mmHg 45%
22:00 +19°C° 0 mm 3 mps 707 mmHg 49%
23:00 +18°C° 0 mm 3 mps 708 mmHg 52%

18 Mayo, Martes

Tiempo Temperatura Precipitaciones Viento Presión Humedad
00:00 +17°C° 0 mm 2 mps 708 mmHg 56%
01:00 +16°C° 0 mm 2 mps 708 mmHg 57%
02:00 +16°C° 0 mm 2 mps 708 mmHg 58%
03:00 +15°C° 0 mm 2 mps 708 mmHg 60%
04:00 +15°C° 0 mm 2 mps 708 mmHg 60%
05:00 +15°C° 0 mm 2 mps 708 mmHg 61%
06:00 +15°C° 0 mm 2 mps 709 mmHg 62%
07:00 +16°C° 0 mm 2 mps 709 mmHg 55%
08:00 +18°C° 0 mm 2 mps 709 mmHg 49%
09:00 +19°C° 0 mm 2 mps 710 mmHg 42%
10:00 +21°C° 0 mm 2 mps 710 mmHg 36%
11:00 +23°C° 0 mm 2 mps 710 mmHg 31%
12:00 +24°C° 0 mm 2 mps 710 mmHg 25%
13:00 +25°C° 0 mm 3 mps 710 mmHg 22%
14:00 +26°C° 0 mm 4 mps 710 mmHg 20%
15:00 +26°C° 0 mm 4 mps 709 mmHg 17%
16:00 +25°C° 0 mm 5 mps 710 mmHg 21%
17:00 +25°C° 0 mm 5 mps 710 mmHg 24%
18:00 +23°C° 0 mm 5 mps 710 mmHg 27%
19:00 +21°C° 0 mm 5 mps 710 mmHg 31%
20:00 +19°C° 0 mm 4 mps 710 mmHg 36%
21:00 +17°C° 0 mm 3 mps 711 mmHg 40%
22:00 +17°C° 0 mm 4 mps 711 mmHg 42%
23:00 +15°C° 0 mm 4 mps 711 mmHg 43%

19 Mayo, Miércoles

Tiempo Temperatura Precipitaciones Viento Presión Humedad
00:00 +14°C° 0 mm 4 mps 711 mmHg 45%
01:00 +14°C° 0 mm 4 mps 711 mmHg 46%
02:00 +13°C° 0 mm 4 mps 711 mmHg 48%
03:00 +12°C° 0 mm 4 mps 711 mmHg 50%
04:00 +12°C° 0 mm 4 mps 711 mmHg 51%
05:00 +12°C° 0 mm 4 mps 712 mmHg 51%
06:00 +12°C° 0 mm 4 mps 712 mmHg 52%
07:00 +14°C° 0 mm 4 mps 712 mmHg 46%
08:00 +17°C° 0 mm 3 mps 712 mmHg 41%
09:00 +19°C° 0 mm 3 mps 713 mmHg 36%
10:00 +20°C° 0 mm 3 mps 713 mmHg 33%
11:00 +23°C° 0 mm 2 mps 712 mmHg 30%
12:00 +24°C° 0 mm 1 mps 712 mmHg 27%
13:00 +25°C° 0 mm 1 mps 712 mmHg 25%
14:00 +26°C° 0 mm 1 mps 712 mmHg 23%
15:00 +27°C° 0 mm 1 mps 711 mmHg 21%
16:00 +27°C° 0 mm 1 mps 711 mmHg 22%
17:00 +27°C° 0 mm 1 mps 711 mmHg 23%
18:00 +26°C° 0 mm 1 mps 711 mmHg 24%
19:00 +25°C° 0 mm 2 mps 711 mmHg 28%
20:00 +23°C° 0 mm 2 mps 711 mmHg 31%
21:00 +21°C° 0 mm 2 mps 711 mmHg 35%
22:00 +20°C° 0 mm 2 mps 711 mmHg 38%
23:00 +19°C° 0 mm 2 mps 712 mmHg 41%

20 Mayo, Jueves

Tiempo Temperatura Precipitaciones Viento Presión Humedad
00:00 +18°C° 0 mm 3 mps 712 mmHg 44%
01:00 +17°C° 0 mm 2 mps 711 mmHg 48%
02:00 +17°C° 0 mm 2 mps 711 mmHg 51%
03:00 +16°C° 0 mm 2 mps 711 mmHg 55%
04:00 +16°C° 0 mm 2 mps 711 mmHg 57%
05:00 +16°C° 0 mm 2 mps 712 mmHg 58%
06:00 +16°C° 0 mm 2 mps 712 mmHg 60%
07:00 +18°C° 0 mm 2 mps 712 mmHg 56%
08:00 +19°C° 0 mm 2 mps 712 mmHg 53%
09:00 +21°C° 0 mm 2 mps 712 mmHg 49%
10:00 +24°C° 0 mm 2 mps 712 mmHg 44%
11:00 +25°C° 0 mm 2 mps 712 mmHg 40%
12:00 +27°C° 0 mm 2 mps 712 mmHg 35%
13:00 +28°C° 0 mm 2 mps 712 mmHg 33%
14:00 +28°C° 0 mm 1 mps 711 mmHg 31%
15:00 +29°C° 0 mm 1 mps 711 mmHg 29%
16:00 +29°C° 0 mm 1 mps 711 mmHg 29%
17:00 +29°C° 0 mm 1 mps 711 mmHg 30%
18:00 +29°C° 0 mm 1 mps 710 mmHg 31%
19:00 +27°C° 0 mm 1 mps 710 mmHg 34%
20:00 +25°C° 0 mm 2 mps 710 mmHg 38%
21:00 +24°C° 0 mm 2 mps 711 mmHg 41%
22:00 +23°C° 0 mm 2 mps 710 mmHg 44%
23:00 +21°C° 0 mm 2 mps 710 mmHg 47%
Mostrar más

Necesitamos Su Consentimiento

Meteoprog y nuestros Proveedores de Servicios pueden almacenar y acceder a sus datos personales como cookies, identificadores de dispositivo u otras tecnologías similares de su dispositivo y procesar dichos datos para personalizar contenido y anuncios, además de ofrecer funciones de redes sociales y analizar el tráfico.

  • Almacenar y/o acceder a información en su dispositivo

    Se puede almacenar o acceder a cookies, identificadores de dispositivo u otra información de su dispositivo para los fines anteriormente indicados.

  • Anuncios y contenido personalizados, medición de anuncios y contenido, percepciones del público, y desarrollo de productos

    Los anuncios y el contenido pueden personalizarse en base a su perfil. Se pueden añadir más datos para personalizar mejor los anuncios y contenidos. Se puede medir el rendimiento de los anuncios y contenidos. Se puede obtener la percepción sobre el público que ha visto los anuncios y contenidos. Dichos datos pueden usarse para desarrollar o mejorar la experiencia del usuario, sistemas y software.

Al hacer clic en ‘Estoy De Acuerdo’ usted permitirá el uso de las cookies, identificadores de dispositivo, balizas web u otras tecnologías similares indicadas. Su configuración puede cambiarse desde el navegador de su dispositivo.

Para ciertos fines, los intereses legítimos pueden ser considerados por encima del consentimiento. Puede leer más sobre ello en nuestra Política de Privacidad y Cookies.